Theta_e
311 312 312 313 312 312 312 313 313 313 313 313 315 315 315 314 314 308 300 306 311 317 320 314 317 318 320 315 314 303 291 291 297 298 300 302 302 307 312 314 315 318 314 316 318
311 311 311 311 311 311 311 311 313 312 312 313 314 314 315 314 306 301 309 314 315 315 310 309 311 315 312 312 312 302 290 293 300 302 301 299 299 302 308 310 311 313 319 316 324
313 312 311 311 311 310 310 312 313 312 312 312 313 314 314 311 293 292 316 319 316 314 311 311 310 310 308 311 310 307 294 296 299 302 302 300 299 303 305 306 311 313 313 316 323
312 312 311 311 311 311 311 312 312 311 312 312 314 314 313 302 282 299 314 313 313 313 308 307 305 303 304 304 308 303 304 298 301 307 305 301 302 301 302 309 311 318 315 316 321
311 311 311 312 312 312 312 311 311 311 312 312 313 313 307 296 294 304 311 308 306 307 305 304 298 298 298 303 306 304 306 303 303 307 306 306 302 301 302 305 317 320 316 314 319
311 313 313 313 313 313 313 313 313 313 312 312 312 312 301 289 303 304 302 304 304 302 301 304 300 301 299 298 300 304 307 307 306 305 307 303 303 302 302 310 316 318 315 314 315
313 313 313 313 314 314 314 313 313 313 313 312 312 308 299 293 302 301 303 302 303 302 297 301 305 299 299 293 301 300 301 306 306 307 304 304 300 298 305 316 315 316 317 315 314
312 312 313 313 314 314 314 313 313 313 312 312 312 303 293 303 303 302 303 301 302 302 301 302 303 300 297 298 296 295 301 295 303 306 306 303 296 300 303 311 311 314 315 317 317
312 312 313 313 313 313 313 313 313 313 312 312 305 300 292 306 299 302 302 298 299 300 300 302 301 295 295 289 286 292 289 294 295 306 304 302 296 304 306 307 309 312 314 316 317
311 311 311 312 312 312 312 312 311 310 308 306 305 296 298 294 299 301 302 301 297 297 297 295 293 288 288 285 275 282 288 291 293 298 303 299 299 302 302 303 307 311 313 315 317
311 311 311 310 310 311 306 300 294 292 299 291 292 293 295 299 302 299 304 300 299 295 286 292 284 281 284 287 286 287 290 290 293 301 299 298 299 302 303 300 305 309 313 313 316
310 310 310 310 310 311 302 296 295 296 289 295 296 296 298 300 293 297 303 294 293 288 290 288 282 286 288 288 286 286 286 287 290 299 300 298 298 302 304 303 302 308 311 313 315
310 310 310 310 310 304 298 299 304 298 285 289 293 294 296 299 294 295 298 295 292 289 288 284 285 289 287 286 284 284 285 285 286 291 300 298 295 299 303 305 305 304 311 314 315
310 310 310 310 301 299 296 306 302 301 284 285 289 295 298 299 293 300 300 296 291 287 288 287 290 288 286 285 286 281 289 288 288 286 288 298 285 295 300 300 303 305 304 311 315
310 310 310 309 298 297 300 302 301 299 267 283 289 299 297 291 294 296 302 296 289 289 288 284 286 285 285 285 288 284 290 288 287 286 291 292 289 291 299 297 300 304 305 307 314
310 310 309 299 297 300 301 300 300 280 265 277 287 287 287 291 293 295 295 298 296 289 289 287 291 289 287 289 289 292 291 290 291 287 283 289 289 288 293 296 300 304 304 306 312
309 309 306 302 292 299 298 298 280 273 279 277 280 286 286 287 288 290 290 288 285 280 280 285 285 289 291 286 289 289 286 278 278 282 283 293 289 291 295 299 302 302 305 306 311
308 307 301 302 300 297 294 283 268 267 271 283 285 285 284 289 289 289 287 286 290 286 284 279 278 286 290 288 285 286 286 281 279 278 283 290 286 291 300 302 302 302 306 307 310
303 293 295 299 300 296 287 267 270 273 280 284 284 279 281 288 289 289 286 287 286 286 282 281 276 288 290 290 290 288 283 289 284 281 283 287 291 296 298 298 296 300 301 303 307
291 291 292 298 298 294 277 276 272 283 288 287 279 280 279 283 285 287 287 291 289 289 288 285 281 285 288 292 294 291 292 282 285 275 275 282 286 287 286 287 289 289 295 301 306
290 284 294 297 292 283 270 269 278 288 289 285 282 282 283 283 285 286 286 291 292 292 295 285 286 284 288 286 288 290 287 290 290 286 280 279 281 283 284 286 286 288 291 296 301
285 274 292 294 278 275 268 277 287 287 289 288 288 286 284 285 284 286 286 288 294 293 289 289 286 281 283 286 288 290 290 291 282 281 283 281 278 286 286 287 287 289 292 294 295
277 279 291 290 270 275 282 281 284 285 286 285 286 288 289 285 283 287 287 293 294 291 289 290 285 279 281 285 287 286 289 292 291 287 283 281 280 289 288 288 289 290 292 293 295
280 274 279 282 279 275 271 275 279 286 288 287 288 288 287 284 287 285 285 290 293 292 294 293 285 282 281 283 287 284 286 288 290 285 285 286 282 289 291 289 289 290 291 293 294
278 271 272 271 273 278 280 281 280 276 284 286 285 286 284 281 282 282 285 287 290 293 291 290 282 284 285 287 287 287 286 286 285 287 286 287 287 290 293 295 290 290 290 291 292
277 275 281 271 280 280 281 275 280 282 283 282 283 286 282 281 283 281 285 285 285 290 289 290 283 285 281 285 286 284 287 286 286 286 286 287 287 293 295 295 292 290 290 290 290
282 283 281 279 278 276 273 280 281 282 284 286 285 284 282 283 285 287 289 289 289 288 288 286 285 282 278 282 283 279 282 287 288 290 289 286 290 291 293 290 288 289 289 289 290
Wind_Speed
9 10 10 12 11 12 14 13 13 13 14 14 13 12 11 12 13 3 7 10 7 10 9 7 3 2 1 2 2 4 1 6 8 7 4 4 3 2 2 8 3 8 7 5 19
8 9 12 12 13 12 13 12 12 11 13 13 13 12 11 11 6 8 11 15 16 13 3 3 3 3 3 4 4 4 4 8 5 5 5 1 2 5 3 4 2 3 3 18 21
9 10 12 12 13 11 11 12 10 10 11 11 12 10 9 7 4 6 10 18 15 10 0 5 5 3 11 3 5 6 7 3 5 3 2 2 3 6 3 2 6 13 15 20 20
12 12 13 12 12 11 11 11 10 10 10 11 12 9 6 2 4 3 5 16 13 4 2 1 2 3 5 13 8 6 8 5 5 2 2 1 4 7 3 4 5 9 21 21 21
14 14 14 13 13 12 12 11 11 10 10 10 10 8 2 1 10 7 14 9 4 4 6 4 2 2 6 5 9 16 9 10 6 1 1 0 2 4 9 9 2 8 21 24 22
15 16 16 16 16 15 14 13 12 11 10 9 9 7 3 9 4 6 8 6 3 2 0 5 6 4 6 7 9 10 19 10 12 8 3 3 4 6 5 1 6 13 19 20 22
16 14 15 16 16 15 14 13 11 11 10 9 9 3 6 17 2 2 6 4 4 2 2 2 5 2 2 6 8 11 13 15 13 13 7 6 10 9 13 6 8 9 14 17 18
13 14 15 12 10 11 11 11 11 11 10 9 8 2 9 3 6 11 10 9 6 3 2 6 2 2 2 5 7 8 11 19 24 12 8 9 25 9 4 9 10 10 8 12 16
12 12 12 10 5 5 8 11 11 10 10 8 5 5 9 3 2 5 7 5 1 3 6 6 2 4 2 4 5 6 11 26 12 24 6 18 8 10 8 9 9 10 12 12 12
10 11 11 9 7 5 8 11 9 6 2 3 2 3 4 4 3 2 4 4 2 2 3 4 4 4 5 8 20 20 13 12 24 13 24 17 21 7 4 7 10 11 12 12 14
9 10 10 10 9 8 6 3 4 3 2 8 7 6 1 2 3 3 3 3 3 4 6 6 7 17 24 19 17 14 10 14 13 15 15 27 19 17 7 4 8 7 12 13 17
8 9 11 11 12 8 2 3 3 2 9 10 16 12 12 4 9 8 7 9 10 8 11 6 20 24 15 13 15 17 23 19 15 21 18 16 22 26 17 7 8 11 13 15 15
7 9 11 13 8 3 1 3 3 1 3 6 5 3 4 6 7 8 13 8 7 13 17 17 11 16 15 14 14 19 20 27 15 23 12 5 14 18 20 18 12 9 11 16 16
8 9 12 16 2 1 1 4 3 1 3 4 3 3 4 4 6 6 15 8 9 15 12 13 14 12 18 21 17 19 18 23 20 12 18 16 10 19 20 21 22 19 12 13 15
8 9 11 8 3 2 2 3 3 0 5 4 3 2 2 4 7 3 3 7 12 8 8 10 9 25 16 24 20 20 17 20 24 22 15 14 10 5 17 21 26 22 20 16 17
7 8 8 2 2 2 3 4 1 2 7 7 3 3 8 4 3 2 5 4 1 7 9 13 4 14 21 10 17 4 9 11 12 16 12 8 13 7 12 20 23 22 18 17 17
7 8 3 2 1 2 3 1 2 3 5 8 5 6 10 5 2 3 5 8 5 4 9 8 18 3 4 9 6 14 7 4 9 11 4 16 11 10 1 11 19 18 20 20 19
8 10 2 3 3 3 3 5 2 4 6 4 7 13 4 5 4 4 4 5 12 7 3 9 6 18 9 19 13 19 18 10 11 6 5 8 10 6 11 15 8 6 12 17 20
6 2 1 1 4 3 5 4 7 6 5 6 11 4 5 4 3 5 3 3 4 11 8 6 8 5 9 13 16 12 18 18 6 2 4 4 2 7 2 3 8 8 8 12 17
2 2 1 3 4 4 6 5 4 5 1 0 4 2 5 10 8 6 4 1 7 11 8 5 4 2 9 9 15 12 9 7 10 4 2 3 1 4 10 10 8 8 7 10 14
3 3 2 3 5 5 3 7 5 6 3 2 2 5 5 5 5 5 6 6 11 6 6 3 3 1 4 4 5 5 9 11 1 1 4 5 2 0 7 8 8 9 8 9 8
3 3 3 2 5 3 1 4 4 4 2 3 4 5 4 5 5 4 6 4 14 13 9 2 3 3 2 3 2 5 2 6 2 3 2 2 0 4 5 6 5 7 7 6 7
4 2 2 3 3 2 3 5 3 3 2 1 3 3 3 4 5 4 6 6 10 12 11 7 4 0 1 3 3 2 1 3 3 2 4 4 3 4 5 7 7 7 8 7 7
4 2 5 4 0 6 4 4 4 2 4 2 4 5 4 2 2 6 10 6 10 10 16 7 2 4 2 2 1 3 3 1 2 2 4 2 7 2 8 11 11 11 8 7 8
3 4 4 2 3 3 3 3 1 3 2 3 3 3 5 4 5 4 6 11 8 11 8 6 5 4 5 6 2 3 2 3 3 2 2 6 4 2 6 8 7 7 9 12 13
7 5 2 1 1 3 1 3 3 2 1 4 4 6 2 3 3 6 8 4 4 8 9 8 4 6 6 8 7 7 9 3 3 2 2 7 3 4 4 4 10 10 10 12 12
2 2 4 1 1 4 5 5 5 2 2 1 4 5 3 3 5 10 8 9 7 7 6 7 5 4 4 5 4 6 8 7 4 6 2 3 4 5 6 10 10 10 11 10 10
Wind_Direction
325 322 325 323 324 321 318 320 321 329 324 321 322 322 325 322 319 283 255 226 208 261 317 320 292 230 289 236 220 130 203 202 200 173 230 349 275 42 0 127 154 169 161 190 143
318 324 320 313 310 309 307 313 313 320 317 317 319 317 319 318 324 285 254 250 240 256 302 338 320 212 226 205 203 190 185 220 205 194 191 289 347 326 148 114 188 139 53 131 146
312 321 315 309 304 303 303 301 312 310 311 305 316 311 321 345 321 247 32 16 225 246 49 348 331 317 217 181 187 189 224 215 252 186 142 187 330 305 96 233 214 191 149 151 158
317 315 309 303 296 294 289 297 299 297 296 309 307 308 335 44 289 230 308 355 18 191 147 25 31 285 260 211 220 244 213 202 268 164 140 149 328 318 201 213 326 172 162 155 167
318 309 301 294 286 280 277 282 286 288 294 295 304 310 70 335 253 284 319 5 329 114 183 184 129 210 242 296 258 234 249 209 240 203 199 85 219 254 274 275 138 148 164 173 177
310 303 296 288 279 273 273 277 278 282 285 288 292 290 252 256 237 262 306 343 156 36 108 167 194 165 302 261 282 314 225 238 225 215 230 196 240 146 265 91 145 155 182 181 180
317 322 311 296 282 272 270 273 276 281 282 283 283 264 239 242 212 41 358 24 47 54 187 242 248 161 130 277 329 306 247 218 216 211 216 173 265 195 242 150 168 200 189 189 190
336 332 325 315 289 273 271 273 273 279 281 275 271 265 258 249 245 257 252 279 276 148 8 300 293 247 222 331 327 319 253 219 214 180 209 156 239 191 194 165 197 189 197 200 198
343 344 352 355 338 289 276 274 275 275 270 260 255 169 270 346 269 259 174 231 152 159 172 256 25 201 222 166 290 226 262 222 233 206 191 203 220 201 224 178 208 201 193 203 203
344 350 357 2 2 339 303 288 275 268 18 82 83 251 252 237 225 209 155 145 167 100 115 150 195 223 189 198 212 221 239 254 229 215 213 223 236 227 150 179 207 200 201 199 203
350 351 352 349 349 345 1 10 20 18 215 200 200 232 319 228 141 200 140 131 135 175 175 192 201 216 214 213 264 271 247 259 283 222 200 225 223 229 215 192 220 202 201 206 213
344 342 342 340 330 324 51 56 134 199 292 242 250 261 273 285 281 245 176 213 179 201 181 193 228 223 226 219 226 248 248 259 306 258 197 214 224 231 219 221 186 213 202 211 220
316 335 339 335 330 58 39 132 120 47 294 289 209 213 230 172 234 223 180 193 207 201 193 208 226 213 223 224 221 233 237 241 260 297 217 176 237 230 229 228 227 228 216 209 205
308 327 338 340 33 341 97 143 104 66 299 274 261 240 194 203 253 206 184 187 202 215 201 234 231 237 209 217 208 243 230 229 250 271 214 191 244 219 220 226 236 232 225 210 205
300 313 333 349 282 19 164 95 121 179 346 255 252 125 242 205 314 173 135 179 218 177 180 215 195 206 225 218 194 242 218 207 232 259 257 192 228 236 188 217 234 232 228 216 203
300 311 336 344 8 258 50 98 139 51 263 322 284 313 330 247 236 335 196 242 301 217 233 238 222 199 212 215 209 289 219 208 253 252 225 184 203 216 209 205 229 228 216 216 203
296 300 297 155 242 118 74 71 345 211 332 306 316 336 325 265 290 238 199 192 204 205 210 197 227 191 155 196 197 216 179 239 252 218 186 166 192 235 182 200 216 215 209 210 200
302 315 280 185 153 96 53 51 103 233 261 306 308 312 288 341 229 213 274 241 222 233 275 208 203 196 184 210 207 207 199 198 221 175 126 152 226 232 219 233 231 212 224 210 210
347 323 67 0 133 83 78 62 208 212 232 312 319 339 322 1 323 321 257 262 245 190 225 215 235 159 184 200 220 159 200 218 288 276 106 185 250 299 188 328 351 284 210 216 211
79 26 340 340 104 78 79 243 232 216 294 9 314 26 318 335 317 317 322 343 332 196 203 274 247 157 197 216 210 189 121 190 236 139 177 60 90 289 348 331 326 324 298 252 213
63 56 275 58 69 53 174 225 253 247 191 219 287 285 297 308 300 295 320 298 351 291 286 275 261 336 243 22 124 136 185 220 70 95 137 136 151 256 294 306 306 312 303 270 225
106 49 314 53 56 107 172 208 268 278 134 229 237 254 255 302 285 286 309 293 332 328 341 17 353 47 56 104 354 342 213 225 166 202 12 126 250 16 331 330 341 332 329 9 41
113 192 333 90 142 217 267 286 264 322 267 246 261 237 260 297 297 323 315 303 335 346 350 345 11 37 167 138 106 156 213 344 86 83 197 122 156 357 7 21 9 4 0 18 29
98 67 331 50 340 140 159 270 297 294 272 311 291 321 316 271 271 311 317 316 321 348 344 340 67 350 46 61 82 161 153 359 95 137 126 78 151 347 27 25 7 17 8 20 34
46 239 196 224 302 185 157 193 283 329 282 338 327 22 333 311 323 319 328 318 321 349 353 10 359 4 26 23 22 58 97 126 62 79 169 140 137 334 25 20 355 8 26 33 35
135 141 121 146 201 118 325 247 193 285 238 305 322 331 28 333 332 309 335 325 325 325 349 349 352 353 5 8 25 47 29 93 37 74 64 107 93 341 309 26 33 21 23 30 24
187 72 104 233 148 105 221 196 206 173 253 339 324 306 298 242 250 266 269 283 292 322 331 344 333 7 345 346 351 34 355 356 75 32 348 75 86 36 58 62 34 7 15 17 17